contact:dominique.lefevre@mio.osupytheas.fr, maurice.libes@osupytheas.fr, didier.mallarino@osupytheas.fr
Project:EMSO http://www.emso-fr.org/EMSO-France
Depth: 2436.0 m
Title:EMSO Ligure Ouest : Data MII capteur MICROCAT
DateTime_Computer,Latitude,Longitude,Temperature,Conductivity,Pressure,DateTime_Instrument
DateTime_Computer,Latitude,Longitude,degC,S m-1,dbar,DateTime_Instrument
2019-08-17T00:00:56Z,42.805,6.029,13.2996,4.60009,2469.923,2019-8-17T02:01:17Z
2019-08-17T00:03:59Z,42.805,6.029,13.2976,4.60046,2469.89,2019-8-17T02:04:20Z
2019-08-17T00:07:02Z,42.805,6.029,13.2995,4.60019,2469.89,2019-8-17T02:07:23Z
2019-08-17T00:10:05Z,42.805,6.029,13.3005,4.60016,2469.853,2019-8-17T02:10:26Z
2019-08-17T00:13:09Z,42.805,6.029,13.2993,4.60016,2469.923,2019-8-17T02:13:29Z
2019-08-17T00:16:12Z,42.805,6.029,13.3007,4.60014,2469.89,2019-8-17T02:16:33Z
2019-08-17T00:19:15Z,42.805,6.029,13.3002,4.60039,2469.876,2019-8-17T02:19:36Z
2019-08-17T00:22:18Z,42.805,6.029,13.2991,4.60013,2469.914,2019-8-17T02:22:39Z
2019-08-17T00:25:21Z,42.805,6.029,13.3009,4.60012,2469.876,2019-8-17T02:25:42Z
2019-08-17T00:28:25Z,42.805,6.029,13.3014,4.60028,2469.89,2019-8-17T02:28:45Z
2019-08-17T00:31:28Z,42.805,6.029,13.2993,4.60059,2469.9,2019-8-17T02:31:49Z
2019-08-17T00:34:31Z,42.805,6.029,13.2996,4.60049,2469.876,2019-8-17T02:34:52Z
2019-08-17T00:37:34Z,42.805,6.029,13.2986,4.60065,2469.867,2019-8-17T02:37:55Z
2019-08-17T00:40:37Z,42.805,6.029,13.3000,4.60044,2469.89,2019-8-17T02:40:58Z
2019-08-17T00:43:41Z,42.805,6.029,13.2969,4.60020,2469.853,2019-8-17T02:44:01Z
2019-08-17T00:46:44Z,42.805,6.029,13.2971,4.60044,2469.89,2019-8-17T02:47:05Z
2019-08-17T00:49:47Z,42.805,6.029,13.2967,4.60045,2469.89,2019-8-17T02:50:08Z
2019-08-17T00:52:50Z,42.805,6.029,13.2970,4.60056,2469.9,2019-8-17T02:53:11Z
2019-08-17T00:55:53Z,42.805,6.029,13.2984,4.60024,2469.89,2019-8-17T02:56:14Z
2019-08-17T00:58:57Z,42.805,6.029,13.2996,4.60005,2469.853,2019-8-17T02:59:17Z
2019-08-17T01:02:00Z,42.805,6.029,13.2976,4.60010,2469.844,2019-8-17T03:02:21Z
2019-08-17T01:05:03Z,42.805,6.029,13.2971,4.60030,2469.83,2019-8-17T03:05:24Z
2019-08-17T01:08:06Z,42.805,6.029,13.2982,4.60031,2469.853,2019-8-17T03:08:27Z
2019-08-17T01:11:09Z,42.805,6.029,13.2974,4.60041,2469.867,2019-8-17T03:11:30Z
2019-08-17T01:14:12Z,42.805,6.029,13.2979,4.60024,2469.867,2019-8-17T03:14:33Z
2019-08-17T01:17:16Z,42.805,6.029,13.2983,4.60040,2469.867,2019-8-17T03:17:37Z
2019-08-17T01:20:19Z,42.805,6.029,13.2981,4.60044,2469.89,2019-8-17T03:20:40Z
2019-08-17T01:23:22Z,42.805,6.029,13.3008,4.60029,2469.83,2019-8-17T03:23:43Z
2019-08-17T01:26:25Z,42.805,6.029,13.2967,4.60053,2469.844,2019-8-17T03:26:46Z
2019-08-17T01:29:28Z,42.805,6.029,13.2979,4.60004,2469.853,2019-8-17T03:29:49Z
2019-08-17T01:32:32Z,42.805,6.029,13.2978,4.60033,2469.83,2019-8-17T03:32:52Z
2019-08-17T01:35:35Z,42.805,6.029,13.2977,4.60036,2469.821,2019-8-17T03:35:56Z
2019-08-17T01:38:38Z,42.805,6.029,13.2971,4.60004,2469.83,2019-8-17T03:38:59Z
2019-08-17T01:41:41Z,42.805,6.029,13.2984,4.60003,2469.844,2019-8-17T03:42:02Z
2019-08-17T01:44:44Z,42.805,6.029,13.2988,4.60005,2469.867,2019-8-17T03:45:05Z
2019-08-17T01:47:48Z,42.805,6.029,13.2985,4.60033,2469.844,2019-8-17T03:48:08Z
2019-08-17T01:50:51Z,42.805,6.029,13.2978,4.60031,2469.844,2019-8-17T03:51:12Z
2019-08-17T01:53:54Z,42.805,6.029,13.2967,4.60069,2469.806,2019-8-17T03:54:15Z
2019-08-17T01:56:57Z,42.805,6.029,13.2980,4.60059,2469.83,2019-8-17T03:57:18Z
2019-08-17T02:00:00Z,42.805,6.029,13.2971,4.60067,2469.83,2019-8-17T04:00:21Z
2019-08-17T02:03:04Z,42.805,6.029,13.2977,4.60034,2469.844,2019-8-17T04:03:24Z
2019-08-17T02:06:07Z,42.805,6.029,13.2972,4.60041,2469.83,2019-8-17T04:06:28Z
2019-08-17T02:09:10Z,42.805,6.029,13.2983,4.60036,2469.83,2019-8-17T04:09:31Z
2019-08-17T02:12:14Z,42.805,6.029,13.2975,4.60044,2469.853,2019-8-17T04:12:34Z
2019-08-17T02:15:17Z,42.805,6.029,13.2983,4.60046,2469.844,2019-8-17T04:15:38Z
2019-08-17T02:18:20Z,42.805,6.029,13.2991,4.60015,2469.806,2019-8-17T04:18:41Z
2019-08-17T02:21:23Z,42.805,6.029,13.3011,4.59998,2469.83,2019-8-17T04:21:44Z
2019-08-17T02:24:26Z,42.805,6.029,13.2973,4.60041,2469.844,2019-8-17T04:24:47Z
2019-08-17T02:27:30Z,42.805,6.029,13.2990,4.60079,2469.821,2019-8-17T04:27:50Z
2019-08-17T02:30:33Z,42.805,6.029,13.2978,4.60010,2469.806,2019-8-17T04:30:54Z
2019-08-17T02:33:36Z,42.805,6.029,13.2991,4.60028,2469.844,2019-8-17T04:33:57Z
2019-08-17T02:36:39Z,42.805,6.029,13.2999,4.60039,2469.844,2019-8-17T04:37:00Z
2019-08-17T02:39:42Z,42.805,6.029,13.3002,4.60006,2469.844,2019-8-17T04:40:03Z
2019-08-17T02:42:46Z,42.805,6.029,13.2988,4.60062,2469.844,2019-8-17T04:43:06Z
2019-08-17T02:45:49Z,42.805,6.029,13.2995,4.60050,2469.83,2019-8-17T04:46:10Z
2019-08-17T02:48:52Z,42.805,6.029,13.2990,4.60029,2469.821,2019-8-17T04:49:13Z
2019-08-17T02:51:55Z,42.805,6.029,13.2999,4.60038,2469.806,2019-8-17T04:52:16Z
2019-08-17T02:54:58Z,42.805,6.029,13.2990,4.60048,2469.844,2019-8-17T04:55:19Z
2019-08-17T02:58:02Z,42.805,6.029,13.3004,4.60021,2469.844,2019-8-17T04:58:23Z
2019-08-17T03:01:05Z,42.805,6.029,13.2991,4.60016,2469.844,2019-8-17T05:01:26Z
2019-08-17T03:04:08Z,42.805,6.029,13.2972,4.60009,2469.821,2019-8-17T05:04:29Z
2019-08-17T03:07:11Z,42.805,6.029,13.2992,4.60025,2469.844,2019-8-17T05:07:32Z
2019-08-17T03:10:14Z,42.805,6.029,13.2982,4.60044,2469.821,2019-8-17T05:10:35Z
2019-08-17T03:13:18Z,42.805,6.029,13.3004,4.60019,2469.806,2019-8-17T05:13:38Z
2019-08-17T03:16:21Z,42.805,6.029,13.2991,4.60039,2469.821,2019-8-17T05:16:42Z
2019-08-17T03:19:24Z,42.805,6.029,13.3038,4.60009,2469.806,2019-8-17T05:19:45Z
2019-08-17T03:22:27Z,42.805,6.029,13.2974,4.60049,2469.806,2019-8-17T05:22:48Z
2019-08-17T03:25:31Z,42.805,6.029,13.2989,4.60036,2469.844,2019-8-17T05:25:51Z
2019-08-17T03:28:34Z,42.805,6.029,13.2975,4.60054,2469.844,2019-8-17T05:28:55Z
2019-08-17T03:31:37Z,42.805,6.029,13.2978,4.60037,2469.783,2019-8-17T05:31:58Z
2019-08-17T03:34:40Z,42.805,6.029,13.2984,4.60059,2469.844,2019-8-17T05:35:01Z
2019-08-17T03:37:43Z,42.805,6.029,13.2991,4.60026,2469.797,2019-8-17T05:38:04Z
2019-08-17T03:40:46Z,42.805,6.029,13.2983,4.60036,2469.83,2019-8-17T05:41:07Z
2019-08-17T03:43:50Z,42.805,6.029,13.2982,4.60072,2469.83,2019-8-17T05:44:11Z
2019-08-17T03:46:53Z,42.805,6.029,13.2991,4.60047,2469.821,2019-8-17T05:47:14Z
2019-08-17T03:49:56Z,42.805,6.029,13.2991,4.60064,2469.83,2019-8-17T05:50:17Z
2019-08-17T03:52:59Z,42.805,6.029,13.2984,4.60062,2469.821,2019-8-17T05:53:20Z
2019-08-17T03:56:02Z,42.805,6.029,13.2970,4.60067,2469.821,2019-8-17T05:56:23Z
2019-08-17T03:59:06Z,42.805,6.029,13.2998,4.60033,2469.876,2019-8-17T05:59:26Z
2019-08-17T04:02:09Z,42.805,6.029,13.2995,4.60010,2469.844,2019-8-17T06:02:30Z
2019-08-17T04:05:12Z,42.805,6.029,13.2986,4.59997,2469.806,2019-8-17T06:05:33Z
2019-08-17T04:08:15Z,42.805,6.029,13.3014,4.60033,2469.844,2019-8-17T06:08:36Z
2019-08-17T04:11:18Z,42.805,6.029,13.3011,4.60018,2469.783,2019-8-17T06:11:39Z
2019-08-17T04:14:22Z,42.805,6.029,13.2978,4.60041,2469.806,2019-8-17T06:14:42Z
2019-08-17T04:17:25Z,42.805,6.029,13.2987,4.60077,2469.83,2019-8-17T06:17:46Z
2019-08-17T04:20:28Z,42.805,6.029,13.3003,4.60059,2469.867,2019-8-17T06:20:49Z
2019-08-17T04:23:31Z,42.805,6.029,13.2997,4.60068,2469.844,2019-8-17T06:23:52Z
2019-08-17T04:26:34Z,42.805,6.029,13.2997,4.60009,2469.853,2019-8-17T06:26:55Z
2019-08-17T04:29:38Z,42.805,6.029,13.3027,4.60045,2469.83,2019-8-17T06:29:58Z
2019-08-17T04:32:41Z,42.805,6.029,13.2996,4.60026,2469.821,2019-8-17T06:33:02Z
2019-08-17T04:35:44Z,42.805,6.029,13.2989,4.60026,2469.806,2019-8-17T06:36:05Z
2019-08-17T04:38:47Z,42.805,6.029,13.3014,4.59995,2469.821,2019-8-17T06:39:08Z
2019-08-17T04:41:50Z,42.805,6.029,13.3005,4.60010,2469.867,2019-8-17T06:42:11Z
2019-08-17T04:44:54Z,42.805,6.029,13.3007,4.60016,2469.867,2019-8-17T06:45:14Z
2019-08-17T04:47:57Z,42.805,6.029,13.3014,4.60003,2469.844,2019-8-17T06:48:18Z
2019-08-17T04:51:00Z,42.805,6.029,13.2971,4.60023,2469.867,2019-8-17T06:51:21Z
2019-08-17T04:54:03Z,42.805,6.029,13.2980,4.60039,2469.853,2019-8-17T06:54:24Z
2019-08-17T04:57:06Z,42.805,6.029,13.2989,4.60032,2469.83,2019-8-17T06:57:27Z
2019-08-17T05:00:10Z,42.805,6.029,13.2979,4.60071,2469.876,2019-8-17T07:00:31Z
2019-08-17T05:03:13Z,42.805,6.029,13.2984,4.60046,2469.867,2019-8-17T07:03:34Z
2019-08-17T05:06:16Z,42.805,6.029,13.2982,4.60028,2469.853,2019-8-17T07:06:37Z
2019-08-17T05:09:19Z,42.805,6.029,13.2987,4.60057,2469.89,2019-8-17T07:09:40Z
2019-08-17T05:12:22Z,42.805,6.029,13.2987,4.60046,2469.83,2019-8-17T07:12:43Z
2019-08-17T05:15:26Z,42.805,6.029,13.3012,4.59982,2469.867,2019-8-17T07:15:46Z
2019-08-17T05:18:29Z,42.805,6.029,13.2989,4.60008,2469.867,2019-8-17T07:18:50Z
2019-08-17T05:21:32Z,42.805,6.029,13.3002,4.60008,2469.867,2019-8-17T07:21:53Z
2019-08-17T05:24:35Z,42.805,6.029,13.2981,4.60014,2469.89,2019-8-17T07:24:56Z
2019-08-17T05:27:38Z,42.805,6.029,13.2976,4.60060,2469.853,2019-8-17T07:27:59Z
2019-08-17T05:30:42Z,42.805,6.029,13.2990,4.60051,2469.876,2019-8-17T07:31:02Z
2019-08-17T05:33:45Z,42.805,6.029,13.2990,4.60028,2469.867,2019-8-17T07:34:06Z
2019-08-17T05:36:48Z,42.805,6.029,13.2973,4.60043,2469.867,2019-8-17T07:37:09Z
2019-08-17T05:39:51Z,42.805,6.029,13.2983,4.60073,2469.876,2019-8-17T07:40:12Z
2019-08-17T05:42:54Z,42.805,6.029,13.2990,4.59994,2469.9,2019-8-17T07:43:15Z
2019-08-17T05:45:58Z,42.805,6.029,13.2993,4.60016,2469.876,2019-8-17T07:46:18Z
2019-08-17T05:49:01Z,42.805,6.029,13.2996,4.60041,2469.876,2019-8-17T07:49:22Z
2019-08-17T05:52:04Z,42.805,6.029,13.3010,4.60006,2469.9,2019-8-17T07:52:25Z
2019-08-17T05:55:07Z,42.805,6.029,13.3017,4.60038,2469.9,2019-8-17T07:55:28Z
2019-08-17T05:58:10Z,42.805,6.029,13.3019,4.60009,2469.914,2019-8-17T07:58:31Z
2019-08-17T06:01:13Z,42.805,6.029,13.3011,4.60009,2469.89,2019-8-17T08:01:34Z
2019-08-17T06:04:17Z,42.805,6.029,13.2996,4.60016,2469.876,2019-8-17T08:04:37Z
2019-08-17T06:07:20Z,42.805,6.029,13.3008,4.60016,2469.914,2019-8-17T08:07:41Z
2019-08-17T06:10:23Z,42.805,6.029,13.3014,4.60022,2469.9,2019-8-17T08:10:44Z
2019-08-17T06:13:26Z,42.805,6.029,13.3011,4.60019,2469.876,2019-8-17T08:13:47Z
2019-08-17T06:16:29Z,42.805,6.029,13.2982,4.60014,2469.876,2019-8-17T08:16:50Z
2019-08-17T06:19:33Z,42.805,6.029,13.2998,4.60022,2469.89,2019-8-17T08:19:53Z
2019-08-17T06:22:36Z,42.805,6.029,13.3014,4.60008,2469.923,2019-8-17T08:22:57Z
2019-08-17T06:25:39Z,42.805,6.029,13.2968,4.60029,2469.923,2019-8-17T08:26:00Z
2019-08-17T06:28:42Z,42.805,6.029,13.2976,4.60031,2469.914,2019-8-17T08:29:03Z
2019-08-17T06:31:45Z,42.805,6.029,13.2967,4.60019,2469.923,2019-8-17T08:32:06Z
2019-08-17T06:34:49Z,42.805,6.029,13.2983,4.60055,2469.923,2019-8-17T08:35:09Z
2019-08-17T06:37:52Z,42.805,6.029,13.3002,4.60039,2469.923,2019-8-17T08:38:13Z
2019-08-17T06:40:55Z,42.805,6.029,13.3015,4.60029,2469.96,2019-8-17T08:41:16Z
2019-08-17T06:43:58Z,42.805,6.029,13.3009,4.60014,2469.9,2019-8-17T08:44:19Z
2019-08-17T06:47:01Z,42.805,6.029,13.3010,4.60026,2469.923,2019-8-17T08:47:22Z
2019-08-17T06:50:04Z,42.805,6.029,13.3021,4.60023,2469.923,2019-8-17T08:50:25Z
2019-08-17T06:53:08Z,42.805,6.029,13.2997,4.60021,2469.914,2019-8-17T08:53:29Z
2019-08-17T06:56:11Z,42.805,6.029,13.3012,4.60014,2469.96,2019-8-17T08:56:32Z
2019-08-17T06:59:14Z,42.805,6.029,13.2993,4.59997,2469.947,2019-8-17T08:59:35Z
2019-08-17T07:02:17Z,42.805,6.029,13.3022,4.60051,2469.96,2019-8-17T09:02:38Z
2019-08-17T07:05:21Z,42.805,6.029,13.3018,4.60024,2469.947,2019-8-17T09:05:41Z
2019-08-17T07:08:24Z,42.805,6.029,13.3000,4.60040,2469.96,2019-8-17T09:08:45Z
2019-08-17T07:11:27Z,42.805,6.029,13.2979,4.60043,2469.96,2019-8-17T09:11:48Z
2019-08-17T07:14:30Z,42.805,6.029,13.3000,4.60024,2469.947,2019-8-17T09:14:51Z
2019-08-17T07:17:33Z,42.805,6.029,13.2985,4.60041,2469.96,2019-8-17T09:17:54Z
2019-08-17T07:20:37Z,42.805,6.029,13.2996,4.60006,2469.937,2019-8-17T09:20:57Z
2019-08-17T07:23:40Z,42.805,6.029,13.3004,4.60017,2469.97,2019-8-17T09:24:01Z
2019-08-17T07:26:43Z,42.805,6.029,13.3014,4.60010,2469.937,2019-8-17T09:27:04Z
2019-08-17T07:29:46Z,42.805,6.029,13.3011,4.59999,2469.947,2019-8-17T09:30:07Z
2019-08-17T07:32:49Z,42.805,6.029,13.3002,4.60014,2469.947,2019-8-17T09:33:10Z
2019-08-17T07:35:52Z,42.805,6.029,13.3002,4.60003,2469.923,2019-8-17T09:36:13Z
2019-08-17T07:38:56Z,42.805,6.029,13.2998,4.60009,2469.96,2019-8-17T09:39:17Z
2019-08-17T07:41:59Z,42.805,6.029,13.3016,4.59995,2469.97,2019-8-17T09:42:20Z
2019-08-17T07:45:02Z,42.805,6.029,13.3017,4.60039,2469.923,2019-8-17T09:45:23Z
2019-08-17T07:48:05Z,42.805,6.029,13.3012,4.60053,2469.984,2019-8-17T09:48:26Z
2019-08-17T07:51:09Z,42.805,6.029,13.3009,4.60045,2469.96,2019-8-17T09:51:29Z
2019-08-17T07:54:12Z,42.805,6.029,13.3010,4.60003,2469.97,2019-8-17T09:54:33Z
2019-08-17T07:57:15Z,42.805,6.029,13.2978,4.60036,2469.947,2019-8-17T09:57:36Z
2019-08-17T08:00:18Z,42.805,6.029,13.2995,4.60019,2469.96,2019-8-17T10:00:39Z
2019-08-17T08:03:21Z,42.805,6.029,13.2979,4.60037,2469.974,2019-8-17T10:03:42Z
2019-08-17T08:06:24Z,42.805,6.029,13.2993,4.60016,2469.984,2019-8-17T10:06:45Z
2019-08-17T08:09:28Z,42.805,6.029,13.2993,4.60049,2469.947,2019-8-17T10:09:49Z
2019-08-17T08:12:31Z,42.805,6.029,13.2986,4.60038,2469.96,2019-8-17T10:12:52Z
2019-08-17T08:15:34Z,42.805,6.029,13.2988,4.60029,2469.96,2019-8-17T10:15:55Z
2019-08-17T08:18:37Z,42.805,6.029,13.3002,4.60012,2469.96,2019-8-17T10:18:58Z
2019-08-17T08:21:40Z,42.805,6.029,13.2989,4.60021,2469.97,2019-8-17T10:22:01Z
2019-08-17T08:24:44Z,42.805,6.029,13.3016,4.60001,2469.96,2019-8-17T10:25:04Z
2019-08-17T08:27:47Z,42.805,6.029,13.2993,4.60049,2469.984,2019-8-17T10:28:08Z
2019-08-17T08:30:50Z,42.805,6.029,13.2989,4.60029,2469.984,2019-8-17T10:31:11Z
2019-08-17T08:33:53Z,42.805,6.029,13.2987,4.60026,2469.96,2019-8-17T10:34:14Z
2019-08-17T08:36:57Z,42.805,6.029,13.2981,4.60045,2469.96,2019-8-17T10:37:17Z
2019-08-17T08:40:00Z,42.805,6.029,13.3011,4.60055,2469.947,2019-8-17T10:40:21Z
2019-08-17T08:43:03Z,42.805,6.029,13.2976,4.60021,2469.909,2019-8-17T10:43:24Z
2019-08-17T08:46:06Z,42.805,6.029,13.2993,4.60055,2469.96,2019-8-17T10:46:27Z
2019-08-17T08:49:09Z,42.805,6.029,13.2982,4.60077,2469.96,2019-8-17T10:49:30Z
2019-08-17T08:52:13Z,42.805,6.029,13.2979,4.60068,2469.937,2019-8-17T10:52:34Z
2019-08-17T08:55:16Z,42.805,6.029,13.3009,4.60039,2469.947,2019-8-17T10:55:37Z
2019-08-17T08:58:19Z,42.805,6.029,13.2974,4.60039,2469.9,2019-8-17T10:58:40Z
2019-08-17T09:01:22Z,42.805,6.029,13.2989,4.60047,2469.937,2019-8-17T11:01:43Z
2019-08-17T09:04:25Z,42.805,6.029,13.3000,4.60016,2469.97,2019-8-17T11:04:46Z
2019-08-17T09:07:29Z,42.805,6.029,13.3009,4.60046,2469.937,2019-8-17T11:07:50Z
2019-08-17T09:10:32Z,42.805,6.029,13.3011,4.60064,2469.9,2019-8-17T11:10:53Z
2019-08-17T09:13:35Z,42.805,6.029,13.2997,4.60077,2469.937,2019-8-17T11:13:56Z
2019-08-17T09:16:38Z,42.805,6.029,13.3001,4.60067,2469.947,2019-8-17T11:16:59Z
2019-08-17T09:19:41Z,42.805,6.029,13.2979,4.60085,2469.914,2019-8-17T11:20:02Z
2019-08-17T09:22:45Z,42.805,6.029,13.3004,4.59996,2469.96,2019-8-17T11:23:06Z
2019-08-17T09:25:48Z,42.805,6.029,13.2992,4.60024,2469.96,2019-8-17T11:26:09Z
2019-08-17T09:28:51Z,42.805,6.029,13.3026,4.60016,2469.923,2019-8-17T11:29:12Z
2019-08-17T09:31:54Z,42.805,6.029,13.3009,4.59999,2469.923,2019-8-17T11:32:15Z
2019-08-17T09:34:58Z,42.805,6.029,13.2979,4.60011,2469.923,2019-8-17T11:35:18Z
2019-08-17T09:38:01Z,42.805,6.029,13.3009,4.60008,2469.937,2019-8-17T11:38:22Z
2019-08-17T09:41:04Z,42.805,6.029,13.3003,4.60032,2469.876,2019-8-17T11:41:25Z
2019-08-17T09:44:07Z,42.805,6.029,13.2986,4.60050,2469.914,2019-8-17T11:44:28Z
2019-08-17T09:47:10Z,42.805,6.029,13.2974,4.60060,2469.9,2019-8-17T11:47:31Z
2019-08-17T09:50:14Z,42.805,6.029,13.2990,4.60072,2469.89,2019-8-17T11:50:34Z
2019-08-17T09:53:17Z,42.805,6.029,13.2994,4.60029,2469.927,2019-8-17T11:53:38Z
2019-08-17T09:56:20Z,42.805,6.029,13.3009,4.60026,2469.923,2019-8-17T11:56:41Z
2019-08-17T09:59:23Z,42.805,6.029,13.2983,4.60028,2469.876,2019-8-17T11:59:44Z
2019-08-17T10:02:26Z,42.805,6.029,13.2977,4.60026,2469.9,2019-8-17T12:02:47Z
2019-08-17T10:05:30Z,42.805,6.029,13.2975,4.60067,2469.96,2019-8-17T12:05:50Z
2019-08-17T10:08:33Z,42.805,6.029,13.2982,4.60033,2469.876,2019-8-17T12:08:54Z
2019-08-17T10:11:36Z,42.805,6.029,13.2980,4.60040,2469.89,2019-8-17T12:11:57Z
2019-08-17T10:14:39Z,42.805,6.029,13.2971,4.60039,2469.876,2019-8-17T12:15:00Z
2019-08-17T10:17:42Z,42.805,6.029,13.2987,4.60005,2469.914,2019-8-17T12:18:03Z
2019-08-17T10:20:46Z,42.805,6.029,13.2986,4.59999,2469.9,2019-8-17T12:21:06Z
2019-08-17T10:23:49Z,42.805,6.029,13.2967,4.60026,2469.923,2019-8-17T12:24:10Z
2019-08-17T10:26:52Z,42.805,6.029,13.2966,4.60073,2469.9,2019-8-17T12:27:13Z
2019-08-17T10:29:55Z,42.805,6.029,13.2968,4.60036,2469.89,2019-8-17T12:30:16Z
2019-08-17T10:32:58Z,42.805,6.029,13.2976,4.60040,2469.876,2019-8-17T12:33:19Z
2019-08-17T10:36:02Z,42.805,6.029,13.2977,4.60066,2469.876,2019-8-17T12:36:22Z
2019-08-17T10:39:05Z,42.805,6.029,13.2992,4.60028,2469.89,2019-8-17T12:39:26Z
2019-08-17T10:42:08Z,42.805,6.029,13.2976,4.60033,2469.9,2019-8-17T12:42:29Z
2019-08-17T10:45:11Z,42.805,6.029,13.2998,4.60049,2469.876,2019-8-17T12:45:32Z
2019-08-17T10:48:15Z,42.805,6.029,13.2997,4.60003,2469.914,2019-8-17T12:48:36Z
2019-08-17T10:51:18Z,42.805,6.029,13.2994,4.60007,2469.89,2019-8-17T12:51:39Z
2019-08-17T10:54:21Z,42.805,6.029,13.2980,4.60069,2469.853,2019-8-17T12:54:42Z
2019-08-17T10:57:24Z,42.805,6.029,13.3013,4.59999,2469.876,2019-8-17T12:57:45Z
2019-08-17T11:00:28Z,42.805,6.029,13.2994,4.60052,2469.853,2019-8-17T13:00:48Z
2019-08-17T11:03:31Z,42.805,6.029,13.2988,4.60030,2469.853,2019-8-17T13:03:52Z
2019-08-17T11:06:34Z,42.805,6.029,13.2975,4.60045,2469.853,2019-8-17T13:06:55Z
2019-08-17T11:09:37Z,42.805,6.029,13.2973,4.60023,2469.89,2019-8-17T13:09:58Z
2019-08-17T11:12:40Z,42.805,6.029,13.2981,4.60046,2469.876,2019-8-17T13:13:01Z
2019-08-17T11:15:43Z,42.805,6.029,13.2990,4.60014,2469.867,2019-8-17T13:16:04Z
2019-08-17T11:18:47Z,42.805,6.029,13.2982,4.60015,2469.89,2019-8-17T13:19:08Z
2019-08-17T11:21:50Z,42.805,6.029,13.2982,4.60032,2469.876,2019-8-17T13:22:11Z
2019-08-17T11:24:53Z,42.805,6.029,13.2977,4.60030,2469.844,2019-8-17T13:25:14Z
2019-08-17T11:27:56Z,42.805,6.029,13.2982,4.60035,2469.867,2019-8-17T13:28:17Z
2019-08-17T11:31:00Z,42.805,6.029,13.3003,4.60025,2469.853,2019-8-17T13:31:20Z
2019-08-17T11:34:03Z,42.805,6.029,13.2982,4.60072,2469.844,2019-8-17T13:34:24Z
2019-08-17T11:37:06Z,42.805,6.029,13.2991,4.60067,2469.797,2019-8-17T13:37:27Z
2019-08-17T11:40:09Z,42.805,6.029,13.2991,4.60047,2469.844,2019-8-17T13:40:30Z
2019-08-17T11:43:12Z,42.805,6.029,13.2976,4.60091,2469.821,2019-8-17T13:43:33Z
2019-08-17T11:46:16Z,42.805,6.029,13.2987,4.60059,2469.89,2019-8-17T13:46:36Z
2019-08-17T11:49:19Z,42.805,6.029,13.2988,4.60064,2469.83,2019-8-17T13:49:40Z
2019-08-17T11:52:22Z,42.805,6.029,13.2990,4.60030,2469.821,2019-8-17T13:52:43Z
2019-08-17T11:55:25Z,42.805,6.029,13.2983,4.60003,2469.83,2019-8-17T13:55:46Z
2019-08-17T11:58:28Z,42.805,6.029,13.3007,4.60024,2469.806,2019-8-17T13:58:49Z
2019-08-17T12:01:32Z,42.805,6.029,13.2987,4.60035,2469.821,2019-8-17T14:01:52Z
2019-08-17T12:04:35Z,42.805,6.029,13.2983,4.60046,2469.867,2019-8-17T14:04:56Z
2019-08-17T12:07:38Z,42.805,6.029,13.2987,4.60026,2469.821,2019-8-17T14:07:59Z
2019-08-17T12:10:41Z,42.805,6.029,13.3000,4.60021,2469.867,2019-8-17T14:11:02Z
2019-08-17T12:13:44Z,42.805,6.029,13.2996,4.60008,2469.867,2019-8-17T14:14:05Z
2019-08-17T12:16:48Z,42.805,6.029,13.2998,4.60024,2469.844,2019-8-17T14:17:08Z
2019-08-17T12:19:51Z,42.805,6.029,13.2989,4.60018,2469.783,2019-8-17T14:20:12Z
2019-08-17T12:22:54Z,42.805,6.029,13.2986,4.60010,2469.844,2019-8-17T14:23:15Z
2019-08-17T12:25:57Z,42.805,6.029,13.2978,4.60035,2469.844,2019-8-17T14:26:18Z
2019-08-17T12:29:00Z,42.805,6.029,13.2974,4.60036,2469.821,2019-8-17T14:29:21Z
2019-08-17T12:32:03Z,42.805,6.029,13.2993,4.60049,2469.806,2019-8-17T14:32:24Z
2019-08-17T12:35:07Z,42.805,6.029,13.2994,4.60070,2469.844,2019-8-17T14:35:28Z
2019-08-17T12:38:10Z,42.805,6.029,13.2990,4.60016,2469.844,2019-8-17T14:38:31Z
2019-08-17T12:41:13Z,42.805,6.029,13.2982,4.60060,2469.806,2019-8-17T14:41:34Z
2019-08-17T12:44:16Z,42.805,6.029,13.2994,4.60029,2469.806,2019-8-17T14:44:37Z
2019-08-17T12:47:20Z,42.805,6.029,13.2977,4.60030,2469.821,2019-8-17T14:47:40Z
2019-08-17T12:50:23Z,42.805,6.029,13.2989,4.60067,2469.821,2019-8-17T14:50:44Z
2019-08-17T12:53:26Z,42.805,6.029,13.2990,4.60089,2469.797,2019-8-17T14:53:47Z
2019-08-17T12:56:29Z,42.805,6.029,13.2989,4.60072,2469.844,2019-8-17T14:56:50Z
2019-08-17T12:59:32Z,42.805,6.029,13.2986,4.60072,2469.806,2019-8-17T14:59:53Z
2019-08-17T13:02:35Z,42.805,6.029,13.2981,4.60049,2469.783,2019-8-17T15:02:56Z
2019-08-17T13:05:39Z,42.805,6.029,13.2979,4.60044,2469.821,2019-8-17T15:06:00Z
2019-08-17T13:08:42Z,42.805,6.029,13.2977,4.60026,2469.83,2019-8-17T15:09:03Z
2019-08-17T13:11:45Z,42.805,6.029,13.2983,4.60036,2469.806,2019-8-17T15:12:06Z
2019-08-17T13:14:48Z,42.805,6.029,13.2990,4.60061,2469.797,2019-8-17T15:15:09Z
2019-08-17T13:17:51Z,42.805,6.029,13.2974,4.60059,2469.76,2019-8-17T15:18:12Z
2019-08-17T13:20:55Z,42.805,6.029,13.2979,4.60021,2469.844,2019-8-17T15:21:16Z
2019-08-17T13:23:58Z,42.805,6.029,13.2988,4.60032,2469.76,2019-8-17T15:24:19Z
2019-08-17T13:27:01Z,42.805,6.029,13.2990,4.60024,2469.783,2019-8-17T15:27:22Z
2019-08-17T13:30:05Z,42.805,6.029,13.3004,4.60067,2469.783,2019-8-17T15:30:25Z
2019-08-17T13:33:08Z,42.805,6.029,13.2987,4.60019,2469.783,2019-8-17T15:33:29Z
2019-08-17T13:36:11Z,42.805,6.029,13.2984,4.60029,2469.821,2019-8-17T15:36:32Z
2019-08-17T13:39:14Z,42.805,6.029,13.2987,4.60028,2469.783,2019-8-17T15:39:35Z
2019-08-17T13:42:17Z,42.805,6.029,13.2972,4.60041,2469.797,2019-8-17T15:42:38Z
2019-08-17T13:45:21Z,42.805,6.029,13.2976,4.60067,2469.783,2019-8-17T15:45:41Z
2019-08-17T13:48:24Z,42.805,6.029,13.2991,4.60037,2469.821,2019-8-17T15:48:45Z
2019-08-17T13:51:27Z,42.805,6.029,13.3002,4.60034,2469.797,2019-8-17T15:51:48Z
2019-08-17T13:54:30Z,42.805,6.029,13.2987,4.60065,2469.76,2019-8-17T15:54:51Z
2019-08-17T13:57:33Z,42.805,6.029,13.2989,4.60027,2469.797,2019-8-17T15:57:54Z
2019-08-17T14:00:37Z,42.805,6.029,13.2978,4.60031,2469.806,2019-8-17T16:00:58Z
2019-08-17T14:03:40Z,42.805,6.029,13.2986,4.60033,2469.783,2019-8-17T16:04:01Z
2019-08-17T14:06:43Z,42.805,6.029,13.2993,4.60041,2469.783,2019-8-17T16:07:04Z
2019-08-17T14:09:46Z,42.805,6.029,13.2986,4.60021,2469.783,2019-8-17T16:10:07Z
2019-08-17T14:12:49Z,42.805,6.029,13.2982,4.60033,2469.806,2019-8-17T16:13:10Z
2019-08-17T14:15:53Z,42.805,6.029,13.3004,4.60021,2469.783,2019-8-17T16:16:13Z
2019-08-17T14:18:56Z,42.805,6.029,13.2977,4.60024,2469.783,2019-8-17T16:19:17Z
2019-08-17T14:21:59Z,42.805,6.029,13.2973,4.60015,2469.76,2019-8-17T16:22:20Z
2019-08-17T14:25:02Z,42.805,6.029,13.2969,4.60011,2469.773,2019-8-17T16:25:23Z
2019-08-17T14:28:05Z,42.805,6.029,13.2998,4.60036,2469.797,2019-8-17T16:28:26Z
2019-08-17T14:31:09Z,42.805,6.029,13.2979,4.60048,2469.797,2019-8-17T16:31:29Z
2019-08-17T14:34:12Z,42.805,6.029,13.2978,4.60056,2469.76,2019-8-17T16:34:33Z
2019-08-17T14:37:15Z,42.805,6.029,13.2988,4.60059,2469.806,2019-8-17T16:37:36Z
2019-08-17T14:40:18Z,42.805,6.029,13.2976,4.59986,2469.806,2019-8-17T16:40:39Z
2019-08-17T14:43:21Z,42.805,6.029,13.2969,4.60022,2469.76,2019-8-17T16:43:42Z
2019-08-17T14:46:25Z,42.805,6.029,13.2967,4.60008,2469.797,2019-8-17T16:46:45Z
2019-08-17T14:49:28Z,42.805,6.029,13.2976,4.59995,2469.797,2019-8-17T16:49:49Z
2019-08-17T14:52:31Z,42.805,6.029,13.2986,4.60027,2469.783,2019-8-17T16:52:52Z
2019-08-17T14:55:34Z,42.805,6.029,13.2990,4.60026,2469.797,2019-8-17T16:55:55Z
2019-08-17T14:58:37Z,42.805,6.029,13.2979,4.60022,2469.783,2019-8-17T16:58:58Z
2019-08-17T15:01:41Z,42.805,6.029,13.2979,4.60026,2469.76,2019-8-17T17:02:02Z
2019-08-17T15:04:44Z,42.805,6.029,13.2971,4.60003,2469.773,2019-8-17T17:05:05Z
2019-08-17T15:07:47Z,42.805,6.029,13.2971,4.60018,2469.783,2019-8-17T17:08:08Z
2019-08-17T15:10:50Z,42.805,6.029,13.2964,4.60046,2469.797,2019-8-17T17:11:11Z
2019-08-17T15:13:53Z,42.805,6.029,13.2978,4.60026,2469.783,2019-8-17T17:14:14Z